Retour au catalogue

SL-8 DEB

LostLEO
NORAD 39697·DEBRIS·🇷🇺 Russia

Lancé Feb 12, 1991 depuis Plesetsk Cosmodrome

Loading…

Prochains Passages (prochaines 24 heures)

TLE

PériméSource: Space-Track

Époque: Mar 18, 2024, 04:08 UTC

1 39697U 91009DL  24078.17227387  .00000062  00000-0  71113-3 0  9995
2 39697  74.0593 152.9173 0144454 345.4763  14.2140 12.20822525847994

Suivez SL-8 DEB en temps réel avec AllMySat

Download on the App Store